Index of /20260430/WXO-DD/model_gdps/15km/00/129
Name Last modified Size Description
Parent Directory -
20260430T00Z_MSC_GDPS_AbsoluteVorticity_IsbL-0200_LatLon0.15_PT129H.grib2 2026-04-30 04:30 1.5M
20260430T00Z_MSC_GDPS_AbsoluteVorticity_IsbL-0250_LatLon0.15_PT129H.grib2 2026-04-30 04:30 1.3M
20260430T00Z_MSC_GDPS_AbsoluteVorticity_IsbL-0500_LatLon0.15_PT129H.grib2 2026-04-30 04:30 1.2M
20260430T00Z_MSC_GDPS_AbsoluteVorticity_IsbL-0700_LatLon0.15_PT129H.grib2 2026-04-30 04:30 1.3M
20260430T00Z_MSC_GDPS_AbsoluteVorticity_IsbL-0850_LatLon0.15_PT129H.grib2 2026-04-30 04:30 1.6M
20260430T00Z_MSC_GDPS_AirTemp_AGL-120m_LatLon0.15_PT129H.grib2 2026-04-30 04:30 901K
20260430T00Z_MSC_GDPS_AirTemp_AGL-2m_LatLon0.15_PT129H.grib2 2026-04-30 04:30 1.0M
20260430T00Z_MSC_GDPS_AirTemp_AGL-40m_LatLon0.15_PT129H.grib2 2026-04-30 04:30 802K
20260430T00Z_MSC_GDPS_AirTemp_AGL-80m_LatLon0.15_PT129H.grib2 2026-04-30 04:30 908K
20260430T00Z_MSC_GDPS_AirTemp_IsbL-0001_LatLon0.15_PT129H.grib2 2026-04-30 04:30 651K
20260430T00Z_MSC_GDPS_AirTemp_IsbL-0005_LatLon0.15_PT129H.grib2 2026-04-30 04:30 682K
20260430T00Z_MSC_GDPS_AirTemp_IsbL-0010_LatLon0.15_PT129H.grib2 2026-04-30 04:30 690K
20260430T00Z_MSC_GDPS_AirTemp_IsbL-0020_LatLon0.15_PT129H.grib2 2026-04-30 04:30 787K
20260430T00Z_MSC_GDPS_AirTemp_IsbL-0030_LatLon0.15_PT129H.grib2 2026-04-30 04:30 837K
20260430T00Z_MSC_GDPS_AirTemp_IsbL-0050_LatLon0.15_PT129H.grib2 2026-04-30 04:30 810K
20260430T00Z_MSC_GDPS_AirTemp_IsbL-0100_LatLon0.15_PT129H.grib2 2026-04-30 04:30 963K
20260430T00Z_MSC_GDPS_AirTemp_IsbL-0150_LatLon0.15_PT129H.grib2 2026-04-30 04:30 963K
20260430T00Z_MSC_GDPS_AirTemp_IsbL-0175_LatLon0.15_PT129H.grib2 2026-04-30 04:30 954K
20260430T00Z_MSC_GDPS_AirTemp_IsbL-0200_LatLon0.15_PT129H.grib2 2026-04-30 04:30 1.0M
20260430T00Z_MSC_GDPS_AirTemp_IsbL-0225_LatLon0.15_PT129H.grib2 2026-04-30 04:30 1.0M
20260430T00Z_MSC_GDPS_AirTemp_IsbL-0250_LatLon0.15_PT129H.grib2 2026-04-30 04:30 1.0M
20260430T00Z_MSC_GDPS_AirTemp_IsbL-0275_LatLon0.15_PT129H.grib2 2026-04-30 04:30 1.0M
20260430T00Z_MSC_GDPS_AirTemp_IsbL-0300_LatLon0.15_PT129H.grib2 2026-04-30 04:30 944K
20260430T00Z_MSC_GDPS_AirTemp_IsbL-0350_LatLon0.15_PT129H.grib2 2026-04-30 04:30 923K
20260430T00Z_MSC_GDPS_AirTemp_IsbL-0400_LatLon0.15_PT129H.grib2 2026-04-30 04:30 940K
20260430T00Z_MSC_GDPS_AirTemp_IsbL-0450_LatLon0.15_PT129H.grib2 2026-04-30 04:30 962K
20260430T00Z_MSC_GDPS_AirTemp_IsbL-0500_LatLon0.15_PT129H.grib2 2026-04-30 04:30 1.0M
20260430T00Z_MSC_GDPS_AirTemp_IsbL-0550_LatLon0.15_PT129H.grib2 2026-04-30 04:30 799K
20260430T00Z_MSC_GDPS_AirTemp_IsbL-0600_LatLon0.15_PT129H.grib2 2026-04-30 04:30 886K
20260430T00Z_MSC_GDPS_AirTemp_IsbL-0650_LatLon0.15_PT129H.grib2 2026-04-30 04:30 914K
20260430T00Z_MSC_GDPS_AirTemp_IsbL-0700_LatLon0.15_PT129H.grib2 2026-04-30 04:30 951K
20260430T00Z_MSC_GDPS_AirTemp_IsbL-0750_LatLon0.15_PT129H.grib2 2026-04-30 04:30 1.0M
20260430T00Z_MSC_GDPS_AirTemp_IsbL-0800_LatLon0.15_PT129H.grib2 2026-04-30 04:30 1.1M
20260430T00Z_MSC_GDPS_AirTemp_IsbL-0850_LatLon0.15_PT129H.grib2 2026-04-30 04:30 1.1M
20260430T00Z_MSC_GDPS_AirTemp_IsbL-0875_LatLon0.15_PT129H.grib2 2026-04-30 04:30 1.2M
20260430T00Z_MSC_GDPS_AirTemp_IsbL-0900_LatLon0.15_PT129H.grib2 2026-04-30 04:30 1.2M
20260430T00Z_MSC_GDPS_AirTemp_IsbL-0925_LatLon0.15_PT129H.grib2 2026-04-30 04:30 1.1M
20260430T00Z_MSC_GDPS_AirTemp_IsbL-0950_LatLon0.15_PT129H.grib2 2026-04-30 04:30 1.1M
20260430T00Z_MSC_GDPS_AirTemp_IsbL-0970_LatLon0.15_PT129H.grib2 2026-04-30 04:30 1.1M
20260430T00Z_MSC_GDPS_AirTemp_IsbL-0985_LatLon0.15_PT129H.grib2 2026-04-30 04:30 1.1M
20260430T00Z_MSC_GDPS_AirTemp_IsbL-1000_LatLon0.15_PT129H.grib2 2026-04-30 04:30 1.1M
20260430T00Z_MSC_GDPS_AirTemp_IsbL-1015_LatLon0.15_PT129H.grib2 2026-04-30 04:30 1.1M
20260430T00Z_MSC_GDPS_Albedo_Sfc_LatLon0.15_PT129H.grib2 2026-04-30 04:30 242K
20260430T00Z_MSC_GDPS_CAPE_Sfc_LatLon0.15_PT129H.grib2 2026-04-30 04:30 4.2M
20260430T00Z_MSC_GDPS_CIN_Sfc_LatLon0.15_PT129H.grib2 2026-04-30 04:30 2.9M
20260430T00Z_MSC_GDPS_CloudWater_EAtm_LatLon0.15_PT129H.grib2 2026-04-30 04:30 532K
20260430T00Z_MSC_GDPS_ConvectivePrecip-Accum_Sfc_LatLon0.15_PT129H.grib2 2026-04-30 04:30 3.6M
20260430T00Z_MSC_GDPS_DewPointDepression_AGL-2m_LatLon0.15_PT129H.grib2 2026-04-30 04:30 763K
20260430T00Z_MSC_GDPS_DewPointDepression_IsbL-0010_LatLon0.15_PT129H.grib2 2026-04-30 04:30 71K
20260430T00Z_MSC_GDPS_DewPointDepression_IsbL-0020_LatLon0.15_PT129H.grib2 2026-04-30 04:30 73K
20260430T00Z_MSC_GDPS_DewPointDepression_IsbL-0030_LatLon0.15_PT129H.grib2 2026-04-30 04:30 87K
20260430T00Z_MSC_GDPS_DewPointDepression_IsbL-0050_LatLon0.15_PT129H.grib2 2026-04-30 04:30 383K
20260430T00Z_MSC_GDPS_DewPointDepression_IsbL-0100_LatLon0.15_PT129H.grib2 2026-04-30 04:30 395K
20260430T00Z_MSC_GDPS_DewPointDepression_IsbL-0150_LatLon0.15_PT129H.grib2 2026-04-30 04:30 472K
20260430T00Z_MSC_GDPS_DewPointDepression_IsbL-0175_LatLon0.15_PT129H.grib2 2026-04-30 04:30 580K
20260430T00Z_MSC_GDPS_DewPointDepression_IsbL-0200_LatLon0.15_PT129H.grib2 2026-04-30 04:30 675K
20260430T00Z_MSC_GDPS_DewPointDepression_IsbL-0225_LatLon0.15_PT129H.grib2 2026-04-30 04:30 762K
20260430T00Z_MSC_GDPS_DewPointDepression_IsbL-0250_LatLon0.15_PT129H.grib2 2026-04-30 04:30 852K
20260430T00Z_MSC_GDPS_DewPointDepression_IsbL-0275_LatLon0.15_PT129H.grib2 2026-04-30 04:30 872K
20260430T00Z_MSC_GDPS_DewPointDepression_IsbL-0300_LatLon0.15_PT129H.grib2 2026-04-30 04:30 912K
20260430T00Z_MSC_GDPS_DewPointDepression_IsbL-0350_LatLon0.15_PT129H.grib2 2026-04-30 04:30 947K
20260430T00Z_MSC_GDPS_DewPointDepression_IsbL-0400_LatLon0.15_PT129H.grib2 2026-04-30 04:30 1.0M
20260430T00Z_MSC_GDPS_DewPointDepression_IsbL-0450_LatLon0.15_PT129H.grib2 2026-04-30 04:30 1.0M
20260430T00Z_MSC_GDPS_DewPointDepression_IsbL-0500_LatLon0.15_PT129H.grib2 2026-04-30 04:30 1.0M
20260430T00Z_MSC_GDPS_DewPointDepression_IsbL-0550_LatLon0.15_PT129H.grib2 2026-04-30 04:30 1.0M
20260430T00Z_MSC_GDPS_DewPointDepression_IsbL-0600_LatLon0.15_PT129H.grib2 2026-04-30 04:30 1.0M
20260430T00Z_MSC_GDPS_DewPointDepression_IsbL-0650_LatLon0.15_PT129H.grib2 2026-04-30 04:30 1.1M
20260430T00Z_MSC_GDPS_DewPointDepression_IsbL-0700_LatLon0.15_PT129H.grib2 2026-04-30 04:30 1.1M
20260430T00Z_MSC_GDPS_DewPointDepression_IsbL-0750_LatLon0.15_PT129H.grib2 2026-04-30 04:30 1.1M
20260430T00Z_MSC_GDPS_DewPointDepression_IsbL-0800_LatLon0.15_PT129H.grib2 2026-04-30 04:30 1.2M
20260430T00Z_MSC_GDPS_DewPointDepression_IsbL-0850_LatLon0.15_PT129H.grib2 2026-04-30 04:30 1.2M
20260430T00Z_MSC_GDPS_DewPointDepression_IsbL-0875_LatLon0.15_PT129H.grib2 2026-04-30 04:30 1.1M
20260430T00Z_MSC_GDPS_DewPointDepression_IsbL-0900_LatLon0.15_PT129H.grib2 2026-04-30 04:30 1.1M
20260430T00Z_MSC_GDPS_DewPointDepression_IsbL-0925_LatLon0.15_PT129H.grib2 2026-04-30 04:30 1.0M
20260430T00Z_MSC_GDPS_DewPointDepression_IsbL-0950_LatLon0.15_PT129H.grib2 2026-04-30 04:30 1.0M
20260430T00Z_MSC_GDPS_DewPointDepression_IsbL-0970_LatLon0.15_PT129H.grib2 2026-04-30 04:30 1.0M
20260430T00Z_MSC_GDPS_DewPointDepression_IsbL-0985_LatLon0.15_PT129H.grib2 2026-04-30 04:30 1.0M
20260430T00Z_MSC_GDPS_DewPointDepression_IsbL-1000_LatLon0.15_PT129H.grib2 2026-04-30 04:30 968K
20260430T00Z_MSC_GDPS_DewPointDepression_IsbL-1015_LatLon0.15_PT129H.grib2 2026-04-30 04:30 913K
20260430T00Z_MSC_GDPS_DewPoint_AGL-2m_LatLon0.15_PT129H.grib2 2026-04-30 04:30 608K
20260430T00Z_MSC_GDPS_DownwardLongwaveRadiationFlux-Accum_Sfc_LatLon0.15_PT129H.grib2 2026-04-30 04:30 818K
20260430T00Z_MSC_GDPS_DownwardShortwaveRadiationFlux-Accum_NTAtm_LatLon0.15_PT129H.grib2 2026-04-30 04:30 191K
20260430T00Z_MSC_GDPS_DownwardShortwaveRadiationFlux-Accum_Sfc_LatLon0.15_PT129H.grib2 2026-04-30 04:30 1.0M
20260430T00Z_MSC_GDPS_FreezingRain-Accum1h_Sfc_LatLon0.15_PT129H.grib2 2026-04-30 04:30 35K
20260430T00Z_MSC_GDPS_FreezingRain-Accum3h_Sfc_LatLon0.15_PT129H.grib2 2026-04-30 04:30 35K
20260430T00Z_MSC_GDPS_FreezingRain-Accum_Sfc_LatLon0.15_PT129H.grib2 2026-04-30 04:30 355K
20260430T00Z_MSC_GDPS_GeopotentialHeight_IsbL-0001_LatLon0.15_PT129H.grib2 2026-04-30 04:30 432K
20260430T00Z_MSC_GDPS_GeopotentialHeight_IsbL-0005_LatLon0.15_PT129H.grib2 2026-04-30 04:30 482K
20260430T00Z_MSC_GDPS_GeopotentialHeight_IsbL-0010_LatLon0.15_PT129H.grib2 2026-04-30 04:30 469K
20260430T00Z_MSC_GDPS_GeopotentialHeight_IsbL-0020_LatLon0.15_PT129H.grib2 2026-04-30 04:30 412K
20260430T00Z_MSC_GDPS_GeopotentialHeight_IsbL-0030_LatLon0.15_PT129H.grib2 2026-04-30 04:30 569K
20260430T00Z_MSC_GDPS_GeopotentialHeight_IsbL-0050_LatLon0.15_PT129H.grib2 2026-04-30 04:30 570K
20260430T00Z_MSC_GDPS_GeopotentialHeight_IsbL-0100_LatLon0.15_PT129H.grib2 2026-04-30 04:30 609K
20260430T00Z_MSC_GDPS_GeopotentialHeight_IsbL-0150_LatLon0.15_PT129H.grib2 2026-04-30 04:30 629K
20260430T00Z_MSC_GDPS_GeopotentialHeight_IsbL-0175_LatLon0.15_PT129H.grib2 2026-04-30 04:30 632K
20260430T00Z_MSC_GDPS_GeopotentialHeight_IsbL-0200_LatLon0.15_PT129H.grib2 2026-04-30 04:30 637K
20260430T00Z_MSC_GDPS_GeopotentialHeight_IsbL-0225_LatLon0.15_PT129H.grib2 2026-04-30 04:30 640K
20260430T00Z_MSC_GDPS_GeopotentialHeight_IsbL-0250_LatLon0.15_PT129H.grib2 2026-04-30 04:30 643K
20260430T00Z_MSC_GDPS_GeopotentialHeight_IsbL-0275_LatLon0.15_PT129H.grib2 2026-04-30 04:30 642K
20260430T00Z_MSC_GDPS_GeopotentialHeight_IsbL-0300_LatLon0.15_PT129H.grib2 2026-04-30 04:30 633K
20260430T00Z_MSC_GDPS_GeopotentialHeight_IsbL-0350_LatLon0.15_PT129H.grib2 2026-04-30 04:30 628K
20260430T00Z_MSC_GDPS_GeopotentialHeight_IsbL-0400_LatLon0.15_PT129H.grib2 2026-04-30 04:30 621K
20260430T00Z_MSC_GDPS_GeopotentialHeight_IsbL-0450_LatLon0.15_PT129H.grib2 2026-04-30 04:30 612K
20260430T00Z_MSC_GDPS_GeopotentialHeight_IsbL-0500_LatLon0.15_PT129H.grib2 2026-04-30 04:30 535K
20260430T00Z_MSC_GDPS_GeopotentialHeight_IsbL-0550_LatLon0.15_PT129H.grib2 2026-04-30 04:30 526K
20260430T00Z_MSC_GDPS_GeopotentialHeight_IsbL-0600_LatLon0.15_PT129H.grib2 2026-04-30 04:30 690K
20260430T00Z_MSC_GDPS_GeopotentialHeight_IsbL-0650_LatLon0.15_PT129H.grib2 2026-04-30 04:30 691K
20260430T00Z_MSC_GDPS_GeopotentialHeight_IsbL-0700_LatLon0.15_PT129H.grib2 2026-04-30 04:30 692K
20260430T00Z_MSC_GDPS_GeopotentialHeight_IsbL-0750_LatLon0.15_PT129H.grib2 2026-04-30 04:30 698K
20260430T00Z_MSC_GDPS_GeopotentialHeight_IsbL-0800_LatLon0.15_PT129H.grib2 2026-04-30 04:30 709K
20260430T00Z_MSC_GDPS_GeopotentialHeight_IsbL-0850_LatLon0.15_PT129H.grib2 2026-04-30 04:30 716K
20260430T00Z_MSC_GDPS_GeopotentialHeight_IsbL-0875_LatLon0.15_PT129H.grib2 2026-04-30 04:30 721K
20260430T00Z_MSC_GDPS_GeopotentialHeight_IsbL-0900_LatLon0.15_PT129H.grib2 2026-04-30 04:30 728K
20260430T00Z_MSC_GDPS_GeopotentialHeight_IsbL-0925_LatLon0.15_PT129H.grib2 2026-04-30 04:30 733K
20260430T00Z_MSC_GDPS_GeopotentialHeight_IsbL-0950_LatLon0.15_PT129H.grib2 2026-04-30 04:30 740K
20260430T00Z_MSC_GDPS_GeopotentialHeight_IsbL-0970_LatLon0.15_PT129H.grib2 2026-04-30 04:30 753K
20260430T00Z_MSC_GDPS_GeopotentialHeight_IsbL-0985_LatLon0.15_PT129H.grib2 2026-04-30 04:30 768K
20260430T00Z_MSC_GDPS_GeopotentialHeight_IsbL-1000_LatLon0.15_PT129H.grib2 2026-04-30 04:30 787K
20260430T00Z_MSC_GDPS_GeopotentialHeight_IsbL-1015_LatLon0.15_PT129H.grib2 2026-04-30 04:30 810K
20260430T00Z_MSC_GDPS_Humidex_Sfc_LatLon0.15_PT129H.grib2 2026-04-30 04:30 5.3M
20260430T00Z_MSC_GDPS_IcePellets-Accum1h_Sfc_LatLon0.15_PT129H.grib2 2026-04-30 04:30 12K
20260430T00Z_MSC_GDPS_IcePellets-Accum3h_Sfc_LatLon0.15_PT129H.grib2 2026-04-30 04:30 12K
20260430T00Z_MSC_GDPS_IcePellets-Accum_Sfc_LatLon0.15_PT129H.grib2 2026-04-30 04:30 88K
20260430T00Z_MSC_GDPS_KIndex_Sfc_LatLon0.15_PT129H.grib2 2026-04-30 04:30 6.5M
20260430T00Z_MSC_GDPS_LatentHeatNetFlux_Sfc_LatLon0.15_PT129H.grib2 2026-04-30 04:30 738K
20260430T00Z_MSC_GDPS_LiftedIndex-MU-VT_IsbL-0500_LatLon0.15_PT129H.grib2 2026-04-30 04:30 5.4M
20260430T00Z_MSC_GDPS_NetLongwaveRadiationFlux-Accum_Sfc_LatLon0.15_PT129H.grib2 2026-04-30 04:30 1.0M
20260430T00Z_MSC_GDPS_NetShortwaveRadiationFlux-Accum_Sfc_LatLon0.15_PT129H.grib2 2026-04-30 04:30 1.0M
20260430T00Z_MSC_GDPS_O3MixingRatio_Sfc_LatLon0.15_PT129H.grib2 2026-04-30 04:51 2.2M
20260430T00Z_MSC_GDPS_O3_EAtm_LatLon0.15_PT129H.grib2 2026-04-30 04:51 2.4M
20260430T00Z_MSC_GDPS_PlanetaryBoundaryLayerHeight_Sfc_LatLon0.15_PT129H.grib2 2026-04-30 04:30 2.5M
20260430T00Z_MSC_GDPS_Precip-Accum1h_Sfc_LatLon0.15_PT129H.grib2 2026-04-30 04:30 3.2M
20260430T00Z_MSC_GDPS_Precip-Accum3h_Sfc_LatLon0.15_PT129H.grib2 2026-04-30 04:30 3.5M
20260430T00Z_MSC_GDPS_Precip-Accum_Sfc_LatLon0.15_PT129H.grib2 2026-04-30 04:30 5.2M
20260430T00Z_MSC_GDPS_PrecipRate_Sfc_LatLon0.15_PT129H.grib2 2026-04-30 04:30 3.2M
20260430T00Z_MSC_GDPS_PrecipType-Instant_Sfc_LatLon0.15_PT129H.grib2 2026-04-30 04:30 1.6M
20260430T00Z_MSC_GDPS_Pressure_MSL_LatLon0.15_PT129H.grib2 2026-04-30 04:30 821K
20260430T00Z_MSC_GDPS_Pressure_PVU-1.5_LatLon0.15_PT129H.grib2 2026-04-30 04:30 5.8M
20260430T00Z_MSC_GDPS_Pressure_PVU-1_LatLon0.15_PT129H.grib2 2026-04-30 04:30 6.0M
20260430T00Z_MSC_GDPS_Pressure_PVU-2_LatLon0.15_PT129H.grib2 2026-04-30 04:30 6.0M
20260430T00Z_MSC_GDPS_Pressure_Sfc_LatLon0.15_PT129H.grib2 2026-04-30 04:30 1.1M
20260430T00Z_MSC_GDPS_RadiativeTemp_Sfc_LatLon0.15_PT129H.grib2 2026-04-30 04:30 503K
20260430T00Z_MSC_GDPS_Rain-Accum1h_Sfc_LatLon0.15_PT129H.grib2 2026-04-30 04:30 1.7M
20260430T00Z_MSC_GDPS_Rain-Accum3h_Sfc_LatLon0.15_PT129H.grib2 2026-04-30 04:30 1.8M
20260430T00Z_MSC_GDPS_Rain-Accum_Sfc_LatLon0.15_PT129H.grib2 2026-04-30 04:30 4.0M
20260430T00Z_MSC_GDPS_RelativeHumidity_AGL-2m_LatLon0.15_PT129H.grib2 2026-04-30 04:30 1.0M
20260430T00Z_MSC_GDPS_RelativeHumidity_IsbL-0010_LatLon0.15_PT129H.grib2 2026-04-30 04:30 195K
20260430T00Z_MSC_GDPS_RelativeHumidity_IsbL-0020_LatLon0.15_PT129H.grib2 2026-04-30 04:30 162K
20260430T00Z_MSC_GDPS_RelativeHumidity_IsbL-0030_LatLon0.15_PT129H.grib2 2026-04-30 04:30 186K
20260430T00Z_MSC_GDPS_RelativeHumidity_IsbL-0050_LatLon0.15_PT129H.grib2 2026-04-30 04:30 338K
20260430T00Z_MSC_GDPS_RelativeHumidity_IsbL-0100_LatLon0.15_PT129H.grib2 2026-04-30 04:30 499K
20260430T00Z_MSC_GDPS_RelativeHumidity_IsbL-0150_LatLon0.15_PT129H.grib2 2026-04-30 04:30 655K
20260430T00Z_MSC_GDPS_RelativeHumidity_IsbL-0175_LatLon0.15_PT129H.grib2 2026-04-30 04:30 788K
20260430T00Z_MSC_GDPS_RelativeHumidity_IsbL-0200_LatLon0.15_PT129H.grib2 2026-04-30 04:30 705K
20260430T00Z_MSC_GDPS_RelativeHumidity_IsbL-0225_LatLon0.15_PT129H.grib2 2026-04-30 04:30 779K
20260430T00Z_MSC_GDPS_RelativeHumidity_IsbL-0250_LatLon0.15_PT129H.grib2 2026-04-30 04:30 851K
20260430T00Z_MSC_GDPS_RelativeHumidity_IsbL-0275_LatLon0.15_PT129H.grib2 2026-04-30 04:30 876K
20260430T00Z_MSC_GDPS_RelativeHumidity_IsbL-0300_LatLon0.15_PT129H.grib2 2026-04-30 04:30 919K
20260430T00Z_MSC_GDPS_RelativeHumidity_IsbL-0350_LatLon0.15_PT129H.grib2 2026-04-30 04:30 942K
20260430T00Z_MSC_GDPS_RelativeHumidity_IsbL-0400_LatLon0.15_PT129H.grib2 2026-04-30 04:30 968K
20260430T00Z_MSC_GDPS_RelativeHumidity_IsbL-0450_LatLon0.15_PT129H.grib2 2026-04-30 04:30 1.0M
20260430T00Z_MSC_GDPS_RelativeHumidity_IsbL-0500_LatLon0.15_PT129H.grib2 2026-04-30 04:30 1.0M
20260430T00Z_MSC_GDPS_RelativeHumidity_IsbL-0550_LatLon0.15_PT129H.grib2 2026-04-30 04:30 1.0M
20260430T00Z_MSC_GDPS_RelativeHumidity_IsbL-0600_LatLon0.15_PT129H.grib2 2026-04-30 04:30 1.0M
20260430T00Z_MSC_GDPS_RelativeHumidity_IsbL-0650_LatLon0.15_PT129H.grib2 2026-04-30 04:30 1.1M
20260430T00Z_MSC_GDPS_RelativeHumidity_IsbL-0700_LatLon0.15_PT129H.grib2 2026-04-30 04:30 1.1M
20260430T00Z_MSC_GDPS_RelativeHumidity_IsbL-0750_LatLon0.15_PT129H.grib2 2026-04-30 04:30 1.2M
20260430T00Z_MSC_GDPS_RelativeHumidity_IsbL-0800_LatLon0.15_PT129H.grib2 2026-04-30 04:30 1.2M
20260430T00Z_MSC_GDPS_RelativeHumidity_IsbL-0850_LatLon0.15_PT129H.grib2 2026-04-30 04:30 1.3M
20260430T00Z_MSC_GDPS_RelativeHumidity_IsbL-0875_LatLon0.15_PT129H.grib2 2026-04-30 04:30 1.3M
20260430T00Z_MSC_GDPS_RelativeHumidity_IsbL-0900_LatLon0.15_PT129H.grib2 2026-04-30 04:30 1.2M
20260430T00Z_MSC_GDPS_RelativeHumidity_IsbL-0925_LatLon0.15_PT129H.grib2 2026-04-30 04:30 1.2M
20260430T00Z_MSC_GDPS_RelativeHumidity_IsbL-0950_LatLon0.15_PT129H.grib2 2026-04-30 04:30 1.2M
20260430T00Z_MSC_GDPS_RelativeHumidity_IsbL-0970_LatLon0.15_PT129H.grib2 2026-04-30 04:30 1.2M
20260430T00Z_MSC_GDPS_RelativeHumidity_IsbL-0985_LatLon0.15_PT129H.grib2 2026-04-30 04:30 1.1M
20260430T00Z_MSC_GDPS_RelativeHumidity_IsbL-1000_LatLon0.15_PT129H.grib2 2026-04-30 04:30 1.1M
20260430T00Z_MSC_GDPS_RelativeHumidity_IsbL-1015_LatLon0.15_PT129H.grib2 2026-04-30 04:30 1.0M
20260430T00Z_MSC_GDPS_RelativeVorticity_IsbL-0200_LatLon0.15_PT129H.grib2 2026-04-30 04:30 1.5M
20260430T00Z_MSC_GDPS_RelativeVorticity_IsbL-0250_LatLon0.15_PT129H.grib2 2026-04-30 04:30 1.3M
20260430T00Z_MSC_GDPS_RelativeVorticity_IsbL-0500_LatLon0.15_PT129H.grib2 2026-04-30 04:30 1.2M
20260430T00Z_MSC_GDPS_RelativeVorticity_IsbL-0700_LatLon0.15_PT129H.grib2 2026-04-30 04:30 1.3M
20260430T00Z_MSC_GDPS_RelativeVorticity_IsbL-0850_LatLon0.15_PT129H.grib2 2026-04-30 04:30 1.6M
20260430T00Z_MSC_GDPS_Runoff-Accum_Sfc_LatLon0.15_PT129H.grib2 2026-04-30 04:30 146K
20260430T00Z_MSC_GDPS_SensibleHeatNetFlux_Sfc_LatLon0.15_PT129H.grib2 2026-04-30 04:30 671K
20260430T00Z_MSC_GDPS_ShowalterIndex_IsbL-0500_LatLon0.15_PT129H.grib2 2026-04-30 04:30 6.2M
20260430T00Z_MSC_GDPS_Snow-Accum1h_Sfc_LatLon0.15_PT129H.grib2 2026-04-30 04:30 1.1M
20260430T00Z_MSC_GDPS_Snow-Accum3h_Sfc_LatLon0.15_PT129H.grib2 2026-04-30 04:30 1.1M
20260430T00Z_MSC_GDPS_Snow-Accum_Sfc_LatLon0.15_PT129H.grib2 2026-04-30 04:30 2.1M
20260430T00Z_MSC_GDPS_SnowDensity_Sfc_LatLon0.15_PT129H.grib2 2026-04-30 04:30 264K
20260430T00Z_MSC_GDPS_SnowDepth_Sfc_LatLon0.15_PT129H.grib2 2026-04-30 04:30 1.7M
20260430T00Z_MSC_GDPS_SoilTemp_DBS-0to10cm_LatLon0.15_PT129H.grib2 2026-04-30 04:30 511K
20260430T00Z_MSC_GDPS_SoilTemp_Sfc_LatLon0.15_PT129H.grib2 2026-04-30 04:30 591K
20260430T00Z_MSC_GDPS_SoilVolumetricIceContent_Sfc_LatLon0.15_PT129H.grib2 2026-04-30 04:30 193K
20260430T00Z_MSC_GDPS_SoilVolumetricWaterContent_DBS-0to10cm_LatLon0.15_PT129H.grib2 2026-04-30 04:30 590K
20260430T00Z_MSC_GDPS_SoilVolumetricWaterContent_DBS-0to1cm_LatLon0.15_PT129H.grib2 2026-04-30 04:30 650K
20260430T00Z_MSC_GDPS_SpecificHumidity_AGL-120m_LatLon0.15_PT129H.grib2 2026-04-30 04:30 1.1M
20260430T00Z_MSC_GDPS_SpecificHumidity_AGL-2m_LatLon0.15_PT129H.grib2 2026-04-30 04:30 1.2M
20260430T00Z_MSC_GDPS_SpecificHumidity_AGL-40m_LatLon0.15_PT129H.grib2 2026-04-30 04:30 1.1M
20260430T00Z_MSC_GDPS_SpecificHumidity_AGL-80m_LatLon0.15_PT129H.grib2 2026-04-30 04:30 1.1M
20260430T00Z_MSC_GDPS_SpecificHumidity_IsbL-0001_LatLon0.15_PT129H.grib2 2026-04-30 04:30 1.2M
20260430T00Z_MSC_GDPS_SpecificHumidity_IsbL-0005_LatLon0.15_PT129H.grib2 2026-04-30 04:30 1.1M
20260430T00Z_MSC_GDPS_SpecificHumidity_IsbL-0010_LatLon0.15_PT129H.grib2 2026-04-30 04:30 1.2M
20260430T00Z_MSC_GDPS_SpecificHumidity_IsbL-0020_LatLon0.15_PT129H.grib2 2026-04-30 04:30 1.3M
20260430T00Z_MSC_GDPS_SpecificHumidity_IsbL-0030_LatLon0.15_PT129H.grib2 2026-04-30 04:30 1.6M
20260430T00Z_MSC_GDPS_SpecificHumidity_IsbL-0050_LatLon0.15_PT129H.grib2 2026-04-30 04:30 1.3M
20260430T00Z_MSC_GDPS_SpecificHumidity_IsbL-0100_LatLon0.15_PT129H.grib2 2026-04-30 04:30 1.3M
20260430T00Z_MSC_GDPS_SpecificHumidity_IsbL-0150_LatLon0.15_PT129H.grib2 2026-04-30 04:30 1.3M
20260430T00Z_MSC_GDPS_SpecificHumidity_IsbL-0175_LatLon0.15_PT129H.grib2 2026-04-30 04:30 1.2M
20260430T00Z_MSC_GDPS_SpecificHumidity_IsbL-0200_LatLon0.15_PT129H.grib2 2026-04-30 04:30 1.3M
20260430T00Z_MSC_GDPS_SpecificHumidity_IsbL-0225_LatLon0.15_PT129H.grib2 2026-04-30 04:30 1.3M
20260430T00Z_MSC_GDPS_SpecificHumidity_IsbL-0250_LatLon0.15_PT129H.grib2 2026-04-30 04:30 1.4M
20260430T00Z_MSC_GDPS_SpecificHumidity_IsbL-0275_LatLon0.15_PT129H.grib2 2026-04-30 04:30 1.3M
20260430T00Z_MSC_GDPS_SpecificHumidity_IsbL-0300_LatLon0.15_PT129H.grib2 2026-04-30 04:30 1.2M
20260430T00Z_MSC_GDPS_SpecificHumidity_IsbL-0350_LatLon0.15_PT129H.grib2 2026-04-30 04:30 1.2M
20260430T00Z_MSC_GDPS_SpecificHumidity_IsbL-0400_LatLon0.15_PT129H.grib2 2026-04-30 04:30 1.4M
20260430T00Z_MSC_GDPS_SpecificHumidity_IsbL-0450_LatLon0.15_PT129H.grib2 2026-04-30 04:30 1.6M
20260430T00Z_MSC_GDPS_SpecificHumidity_IsbL-0500_LatLon0.15_PT129H.grib2 2026-04-30 04:30 1.4M
20260430T00Z_MSC_GDPS_SpecificHumidity_IsbL-0550_LatLon0.15_PT129H.grib2 2026-04-30 04:30 1.6M
20260430T00Z_MSC_GDPS_SpecificHumidity_IsbL-0600_LatLon0.15_PT129H.grib2 2026-04-30 04:30 1.7M
20260430T00Z_MSC_GDPS_SpecificHumidity_IsbL-0650_LatLon0.15_PT129H.grib2 2026-04-30 04:30 1.5M
20260430T00Z_MSC_GDPS_SpecificHumidity_IsbL-0700_LatLon0.15_PT129H.grib2 2026-04-30 04:30 1.6M
20260430T00Z_MSC_GDPS_SpecificHumidity_IsbL-0750_LatLon0.15_PT129H.grib2 2026-04-30 04:30 1.7M
20260430T00Z_MSC_GDPS_SpecificHumidity_IsbL-0800_LatLon0.15_PT129H.grib2 2026-04-30 04:30 1.8M
20260430T00Z_MSC_GDPS_SpecificHumidity_IsbL-0850_LatLon0.15_PT129H.grib2 2026-04-30 04:30 1.9M
20260430T00Z_MSC_GDPS_SpecificHumidity_IsbL-0875_LatLon0.15_PT129H.grib2 2026-04-30 04:30 1.9M
20260430T00Z_MSC_GDPS_SpecificHumidity_IsbL-0900_LatLon0.15_PT129H.grib2 2026-04-30 04:30 1.9M
20260430T00Z_MSC_GDPS_SpecificHumidity_IsbL-0925_LatLon0.15_PT129H.grib2 2026-04-30 04:30 1.9M
20260430T00Z_MSC_GDPS_SpecificHumidity_IsbL-0950_LatLon0.15_PT129H.grib2 2026-04-30 04:30 1.6M
20260430T00Z_MSC_GDPS_SpecificHumidity_IsbL-0970_LatLon0.15_PT129H.grib2 2026-04-30 04:30 1.5M
20260430T00Z_MSC_GDPS_SpecificHumidity_IsbL-0985_LatLon0.15_PT129H.grib2 2026-04-30 04:30 1.5M
20260430T00Z_MSC_GDPS_SpecificHumidity_IsbL-1000_LatLon0.15_PT129H.grib2 2026-04-30 04:30 1.5M
20260430T00Z_MSC_GDPS_SpecificHumidity_IsbL-1015_LatLon0.15_PT129H.grib2 2026-04-30 04:30 1.5M
20260430T00Z_MSC_GDPS_SpecificHumidity_Sfc_LatLon0.15_PT129H.grib2 2026-04-30 04:30 681K
20260430T00Z_MSC_GDPS_Thickness_IsbL-0850to0700_LatLon0.15_PT129H.grib2 2026-04-30 04:30 471K
20260430T00Z_MSC_GDPS_Thickness_IsbL-1000to0500_LatLon0.15_PT129H.grib2 2026-04-30 04:30 376K
20260430T00Z_MSC_GDPS_Thickness_IsbL-1000to0850_LatLon0.15_PT129H.grib2 2026-04-30 04:30 493K
20260430T00Z_MSC_GDPS_TotalCloudCover_Sfc_LatLon0.15_PT129H.grib2 2026-04-30 04:30 825K
20260430T00Z_MSC_GDPS_TotalTotalsIndex_Sfc_LatLon0.15_PT129H.grib2 2026-04-30 04:30 6.2M
20260430T00Z_MSC_GDPS_UVIndex-ClearSky_Sfc_LatLon0.15_PT129H.grib2 2026-04-30 04:51 1.1M
20260430T00Z_MSC_GDPS_UVIndex_Sfc_LatLon0.15_PT129H.grib2 2026-04-30 04:51 1.5M
20260430T00Z_MSC_GDPS_UpwardLongwaveRadiationFlux_NTAtm_LatLon0.15_PT129H.grib2 2026-04-30 04:30 836K
20260430T00Z_MSC_GDPS_VerticalVelocity_IsbL-0200_LatLon0.15_PT129H.grib2 2026-04-30 04:30 1.1M
20260430T00Z_MSC_GDPS_VerticalVelocity_IsbL-0250_LatLon0.15_PT129H.grib2 2026-04-30 04:30 1.0M
20260430T00Z_MSC_GDPS_VerticalVelocity_IsbL-0500_LatLon0.15_PT129H.grib2 2026-04-30 04:30 1.0M
20260430T00Z_MSC_GDPS_VerticalVelocity_IsbL-0600_LatLon0.15_PT129H.grib2 2026-04-30 04:30 1.1M
20260430T00Z_MSC_GDPS_VerticalVelocity_IsbL-0700_LatLon0.15_PT129H.grib2 2026-04-30 04:30 1.2M
20260430T00Z_MSC_GDPS_VerticalVelocity_IsbL-0850_LatLon0.15_PT129H.grib2 2026-04-30 04:30 1.4M
20260430T00Z_MSC_GDPS_WindChill_Sfc_LatLon0.15_PT129H.grib2 2026-04-30 04:30 5.3M
20260430T00Z_MSC_GDPS_WindDir_AGL-10m_LatLon0.15_PT129H.grib2 2026-04-30 04:30 1.3M
20260430T00Z_MSC_GDPS_WindDir_AGL-120m_LatLon0.15_PT129H.grib2 2026-04-30 04:30 1.3M
20260430T00Z_MSC_GDPS_WindDir_AGL-40m_LatLon0.15_PT129H.grib2 2026-04-30 04:30 1.4M
20260430T00Z_MSC_GDPS_WindDir_AGL-80m_LatLon0.15_PT129H.grib2 2026-04-30 04:30 1.3M
20260430T00Z_MSC_GDPS_WindDir_IsbL-0001_LatLon0.15_PT129H.grib2 2026-04-30 04:30 672K
20260430T00Z_MSC_GDPS_WindDir_IsbL-0005_LatLon0.15_PT129H.grib2 2026-04-30 04:30 811K
20260430T00Z_MSC_GDPS_WindDir_IsbL-0010_LatLon0.15_PT129H.grib2 2026-04-30 04:30 855K
20260430T00Z_MSC_GDPS_WindDir_IsbL-0020_LatLon0.15_PT129H.grib2 2026-04-30 04:30 947K
20260430T00Z_MSC_GDPS_WindDir_IsbL-0030_LatLon0.15_PT129H.grib2 2026-04-30 04:30 928K
20260430T00Z_MSC_GDPS_WindDir_IsbL-0050_LatLon0.15_PT129H.grib2 2026-04-30 04:30 941K
20260430T00Z_MSC_GDPS_WindDir_IsbL-0100_LatLon0.15_PT129H.grib2 2026-04-30 04:30 1.0M
20260430T00Z_MSC_GDPS_WindDir_IsbL-0150_LatLon0.15_PT129H.grib2 2026-04-30 04:30 1.0M
20260430T00Z_MSC_GDPS_WindDir_IsbL-0175_LatLon0.15_PT129H.grib2 2026-04-30 04:30 1.0M
20260430T00Z_MSC_GDPS_WindDir_IsbL-0200_LatLon0.15_PT129H.grib2 2026-04-30 04:30 1.1M
20260430T00Z_MSC_GDPS_WindDir_IsbL-0225_LatLon0.15_PT129H.grib2 2026-04-30 04:30 1.1M
20260430T00Z_MSC_GDPS_WindDir_IsbL-0250_LatLon0.15_PT129H.grib2 2026-04-30 04:30 1.1M
20260430T00Z_MSC_GDPS_WindDir_IsbL-0275_LatLon0.15_PT129H.grib2 2026-04-30 04:30 1.2M
20260430T00Z_MSC_GDPS_WindDir_IsbL-0300_LatLon0.15_PT129H.grib2 2026-04-30 04:30 1.2M
20260430T00Z_MSC_GDPS_WindDir_IsbL-0350_LatLon0.15_PT129H.grib2 2026-04-30 04:30 1.2M
20260430T00Z_MSC_GDPS_WindDir_IsbL-0400_LatLon0.15_PT129H.grib2 2026-04-30 04:30 1.3M
20260430T00Z_MSC_GDPS_WindDir_IsbL-0450_LatLon0.15_PT129H.grib2 2026-04-30 04:30 1.3M
20260430T00Z_MSC_GDPS_WindDir_IsbL-0500_LatLon0.15_PT129H.grib2 2026-04-30 04:30 1.3M
20260430T00Z_MSC_GDPS_WindDir_IsbL-0550_LatLon0.15_PT129H.grib2 2026-04-30 04:30 1.4M
20260430T00Z_MSC_GDPS_WindDir_IsbL-0600_LatLon0.15_PT129H.grib2 2026-04-30 04:30 1.4M
20260430T00Z_MSC_GDPS_WindDir_IsbL-0650_LatLon0.15_PT129H.grib2 2026-04-30 04:30 1.5M
20260430T00Z_MSC_GDPS_WindDir_IsbL-0700_LatLon0.15_PT129H.grib2 2026-04-30 04:30 1.6M
20260430T00Z_MSC_GDPS_WindDir_IsbL-0750_LatLon0.15_PT129H.grib2 2026-04-30 04:30 1.6M
20260430T00Z_MSC_GDPS_WindDir_IsbL-0800_LatLon0.15_PT129H.grib2 2026-04-30 04:30 1.8M
20260430T00Z_MSC_GDPS_WindDir_IsbL-0850_LatLon0.15_PT129H.grib2 2026-04-30 04:30 1.9M
20260430T00Z_MSC_GDPS_WindDir_IsbL-0875_LatLon0.15_PT129H.grib2 2026-04-30 04:30 1.9M
20260430T00Z_MSC_GDPS_WindDir_IsbL-0900_LatLon0.15_PT129H.grib2 2026-04-30 04:30 1.9M
20260430T00Z_MSC_GDPS_WindDir_IsbL-0925_LatLon0.15_PT129H.grib2 2026-04-30 04:30 1.9M
20260430T00Z_MSC_GDPS_WindDir_IsbL-0950_LatLon0.15_PT129H.grib2 2026-04-30 04:30 1.9M
20260430T00Z_MSC_GDPS_WindDir_IsbL-0970_LatLon0.15_PT129H.grib2 2026-04-30 04:30 2.0M
20260430T00Z_MSC_GDPS_WindDir_IsbL-0985_LatLon0.15_PT129H.grib2 2026-04-30 04:30 2.0M
20260430T00Z_MSC_GDPS_WindDir_IsbL-1000_LatLon0.15_PT129H.grib2 2026-04-30 04:30 2.0M
20260430T00Z_MSC_GDPS_WindDir_IsbL-1015_LatLon0.15_PT129H.grib2 2026-04-30 04:30 2.0M
20260430T00Z_MSC_GDPS_WindGust-Max_AGL-10m_LatLon0.15_PT129H.grib2 2026-04-30 04:30 1.8M
20260430T00Z_MSC_GDPS_WindGust-Min_AGL-10m_LatLon0.15_PT129H.grib2 2026-04-30 04:30 2.1M
20260430T00Z_MSC_GDPS_WindGust_AGL-10m_LatLon0.15_PT129H.grib2 2026-04-30 04:30 2.1M
20260430T00Z_MSC_GDPS_WindSpeed_AGL-10m_LatLon0.15_PT129H.grib2 2026-04-30 04:30 1.1M
20260430T00Z_MSC_GDPS_WindSpeed_AGL-120m_LatLon0.15_PT129H.grib2 2026-04-30 04:30 1.2M
20260430T00Z_MSC_GDPS_WindSpeed_AGL-40m_LatLon0.15_PT129H.grib2 2026-04-30 04:30 1.2M
20260430T00Z_MSC_GDPS_WindSpeed_AGL-80m_LatLon0.15_PT129H.grib2 2026-04-30 04:30 1.2M
20260430T00Z_MSC_GDPS_WindSpeed_IsbL-0001_LatLon0.15_PT129H.grib2 2026-04-30 04:30 644K
20260430T00Z_MSC_GDPS_WindSpeed_IsbL-0005_LatLon0.15_PT129H.grib2 2026-04-30 04:30 687K
20260430T00Z_MSC_GDPS_WindSpeed_IsbL-0010_LatLon0.15_PT129H.grib2 2026-04-30 04:30 624K
20260430T00Z_MSC_GDPS_WindSpeed_IsbL-0020_LatLon0.15_PT129H.grib2 2026-04-30 04:30 851K
20260430T00Z_MSC_GDPS_WindSpeed_IsbL-0030_LatLon0.15_PT129H.grib2 2026-04-30 04:30 858K
20260430T00Z_MSC_GDPS_WindSpeed_IsbL-0050_LatLon0.15_PT129H.grib2 2026-04-30 04:30 899K
20260430T00Z_MSC_GDPS_WindSpeed_IsbL-0100_LatLon0.15_PT129H.grib2 2026-04-30 04:30 1.1M
20260430T00Z_MSC_GDPS_WindSpeed_IsbL-0150_LatLon0.15_PT129H.grib2 2026-04-30 04:30 940K
20260430T00Z_MSC_GDPS_WindSpeed_IsbL-0175_LatLon0.15_PT129H.grib2 2026-04-30 04:30 1.0M
20260430T00Z_MSC_GDPS_WindSpeed_IsbL-0200_LatLon0.15_PT129H.grib2 2026-04-30 04:30 1.1M
20260430T00Z_MSC_GDPS_WindSpeed_IsbL-0225_LatLon0.15_PT129H.grib2 2026-04-30 04:30 1.1M
20260430T00Z_MSC_GDPS_WindSpeed_IsbL-0250_LatLon0.15_PT129H.grib2 2026-04-30 04:30 1.1M
20260430T00Z_MSC_GDPS_WindSpeed_IsbL-0275_LatLon0.15_PT129H.grib2 2026-04-30 04:30 1.1M
20260430T00Z_MSC_GDPS_WindSpeed_IsbL-0300_LatLon0.15_PT129H.grib2 2026-04-30 04:30 1.1M
20260430T00Z_MSC_GDPS_WindSpeed_IsbL-0350_LatLon0.15_PT129H.grib2 2026-04-30 04:30 1.1M
20260430T00Z_MSC_GDPS_WindSpeed_IsbL-0400_LatLon0.15_PT129H.grib2 2026-04-30 04:30 1.1M
20260430T00Z_MSC_GDPS_WindSpeed_IsbL-0450_LatLon0.15_PT129H.grib2 2026-04-30 04:30 1.1M
20260430T00Z_MSC_GDPS_WindSpeed_IsbL-0500_LatLon0.15_PT129H.grib2 2026-04-30 04:30 1.1M
20260430T00Z_MSC_GDPS_WindSpeed_IsbL-0550_LatLon0.15_PT129H.grib2 2026-04-30 04:30 1.1M
20260430T00Z_MSC_GDPS_WindSpeed_IsbL-0600_LatLon0.15_PT129H.grib2 2026-04-30 04:30 1.4M
20260430T00Z_MSC_GDPS_WindSpeed_IsbL-0650_LatLon0.15_PT129H.grib2 2026-04-30 04:30 1.4M
20260430T00Z_MSC_GDPS_WindSpeed_IsbL-0700_LatLon0.15_PT129H.grib2 2026-04-30 04:30 1.5M
20260430T00Z_MSC_GDPS_WindSpeed_IsbL-0750_LatLon0.15_PT129H.grib2 2026-04-30 04:30 1.6M
20260430T00Z_MSC_GDPS_WindSpeed_IsbL-0800_LatLon0.15_PT129H.grib2 2026-04-30 04:30 1.7M
20260430T00Z_MSC_GDPS_WindSpeed_IsbL-0850_LatLon0.15_PT129H.grib2 2026-04-30 04:30 1.4M
20260430T00Z_MSC_GDPS_WindSpeed_IsbL-0875_LatLon0.15_PT129H.grib2 2026-04-30 04:30 1.5M
20260430T00Z_MSC_GDPS_WindSpeed_IsbL-0900_LatLon0.15_PT129H.grib2 2026-04-30 04:30 1.5M
20260430T00Z_MSC_GDPS_WindSpeed_IsbL-0925_LatLon0.15_PT129H.grib2 2026-04-30 04:30 1.8M
20260430T00Z_MSC_GDPS_WindSpeed_IsbL-0950_LatLon0.15_PT129H.grib2 2026-04-30 04:30 1.8M
20260430T00Z_MSC_GDPS_WindSpeed_IsbL-0970_LatLon0.15_PT129H.grib2 2026-04-30 04:30 1.8M
20260430T00Z_MSC_GDPS_WindSpeed_IsbL-0985_LatLon0.15_PT129H.grib2 2026-04-30 04:30 1.9M
20260430T00Z_MSC_GDPS_WindSpeed_IsbL-1000_LatLon0.15_PT129H.grib2 2026-04-30 04:30 1.9M
20260430T00Z_MSC_GDPS_WindSpeed_IsbL-1015_LatLon0.15_PT129H.grib2 2026-04-30 04:30 1.8M
20260430T00Z_MSC_GDPS_WindU_AGL-10m_LatLon0.15_PT129H.grib2 2026-04-30 04:30 1.3M
20260430T00Z_MSC_GDPS_WindU_AGL-120m_LatLon0.15_PT129H.grib2 2026-04-30 04:30 1.0M
20260430T00Z_MSC_GDPS_WindU_AGL-40m_LatLon0.15_PT129H.grib2 2026-04-30 04:30 1.0M
20260430T00Z_MSC_GDPS_WindU_AGL-80m_LatLon0.15_PT129H.grib2 2026-04-30 04:30 1.0M
20260430T00Z_MSC_GDPS_WindU_IsbL-0001_LatLon0.15_PT129H.grib2 2026-04-30 04:30 502K
20260430T00Z_MSC_GDPS_WindU_IsbL-0005_LatLon0.15_PT129H.grib2 2026-04-30 04:30 685K
20260430T00Z_MSC_GDPS_WindU_IsbL-0010_LatLon0.15_PT129H.grib2 2026-04-30 04:30 695K
20260430T00Z_MSC_GDPS_WindU_IsbL-0020_LatLon0.15_PT129H.grib2 2026-04-30 04:30 727K
20260430T00Z_MSC_GDPS_WindU_IsbL-0030_LatLon0.15_PT129H.grib2 2026-04-30 04:30 735K
20260430T00Z_MSC_GDPS_WindU_IsbL-0050_LatLon0.15_PT129H.grib2 2026-04-30 04:30 693K
20260430T00Z_MSC_GDPS_WindU_IsbL-0100_LatLon0.15_PT129H.grib2 2026-04-30 04:30 859K
20260430T00Z_MSC_GDPS_WindU_IsbL-0150_LatLon0.15_PT129H.grib2 2026-04-30 04:30 1.0M
20260430T00Z_MSC_GDPS_WindU_IsbL-0175_LatLon0.15_PT129H.grib2 2026-04-30 04:30 1.0M
20260430T00Z_MSC_GDPS_WindU_IsbL-0200_LatLon0.15_PT129H.grib2 2026-04-30 04:30 835K
20260430T00Z_MSC_GDPS_WindU_IsbL-0225_LatLon0.15_PT129H.grib2 2026-04-30 04:30 845K
20260430T00Z_MSC_GDPS_WindU_IsbL-0250_LatLon0.15_PT129H.grib2 2026-04-30 04:30 849K
20260430T00Z_MSC_GDPS_WindU_IsbL-0275_LatLon0.15_PT129H.grib2 2026-04-30 04:30 878K
20260430T00Z_MSC_GDPS_WindU_IsbL-0300_LatLon0.15_PT129H.grib2 2026-04-30 04:30 870K
20260430T00Z_MSC_GDPS_WindU_IsbL-0350_LatLon0.15_PT129H.grib2 2026-04-30 04:30 883K
20260430T00Z_MSC_GDPS_WindU_IsbL-0400_LatLon0.15_PT129H.grib2 2026-04-30 04:30 886K
20260430T00Z_MSC_GDPS_WindU_IsbL-0450_LatLon0.15_PT129H.grib2 2026-04-30 04:30 1.1M
20260430T00Z_MSC_GDPS_WindU_IsbL-0500_LatLon0.15_PT129H.grib2 2026-04-30 04:30 1.1M
20260430T00Z_MSC_GDPS_WindU_IsbL-0550_LatLon0.15_PT129H.grib2 2026-04-30 04:30 1.1M
20260430T00Z_MSC_GDPS_WindU_IsbL-0600_LatLon0.15_PT129H.grib2 2026-04-30 04:30 1.1M
20260430T00Z_MSC_GDPS_WindU_IsbL-0650_LatLon0.15_PT129H.grib2 2026-04-30 04:30 1.2M
20260430T00Z_MSC_GDPS_WindU_IsbL-0700_LatLon0.15_PT129H.grib2 2026-04-30 04:30 1.2M
20260430T00Z_MSC_GDPS_WindU_IsbL-0750_LatLon0.15_PT129H.grib2 2026-04-30 04:30 1.3M
20260430T00Z_MSC_GDPS_WindU_IsbL-0800_LatLon0.15_PT129H.grib2 2026-04-30 04:30 1.4M
20260430T00Z_MSC_GDPS_WindU_IsbL-0850_LatLon0.15_PT129H.grib2 2026-04-30 04:30 1.4M
20260430T00Z_MSC_GDPS_WindU_IsbL-0875_LatLon0.15_PT129H.grib2 2026-04-30 04:30 1.5M
20260430T00Z_MSC_GDPS_WindU_IsbL-0900_LatLon0.15_PT129H.grib2 2026-04-30 04:30 1.5M
20260430T00Z_MSC_GDPS_WindU_IsbL-0925_LatLon0.15_PT129H.grib2 2026-04-30 04:30 1.5M
20260430T00Z_MSC_GDPS_WindU_IsbL-0950_LatLon0.15_PT129H.grib2 2026-04-30 04:30 1.4M
20260430T00Z_MSC_GDPS_WindU_IsbL-0970_LatLon0.15_PT129H.grib2 2026-04-30 04:30 1.4M
20260430T00Z_MSC_GDPS_WindU_IsbL-0985_LatLon0.15_PT129H.grib2 2026-04-30 04:30 1.4M
20260430T00Z_MSC_GDPS_WindU_IsbL-1000_LatLon0.15_PT129H.grib2 2026-04-30 04:30 1.4M
20260430T00Z_MSC_GDPS_WindU_IsbL-1015_LatLon0.15_PT129H.grib2 2026-04-30 04:30 1.3M
20260430T00Z_MSC_GDPS_WindV_AGL-10m_LatLon0.15_PT129H.grib2 2026-04-30 04:30 1.6M
20260430T00Z_MSC_GDPS_WindV_AGL-120m_LatLon0.15_PT129H.grib2 2026-04-30 04:30 961K
20260430T00Z_MSC_GDPS_WindV_AGL-40m_LatLon0.15_PT129H.grib2 2026-04-30 04:30 1.2M
20260430T00Z_MSC_GDPS_WindV_AGL-80m_LatLon0.15_PT129H.grib2 2026-04-30 04:30 962K
20260430T00Z_MSC_GDPS_WindV_IsbL-0001_LatLon0.15_PT129H.grib2 2026-04-30 04:30 710K
20260430T00Z_MSC_GDPS_WindV_IsbL-0005_LatLon0.15_PT129H.grib2 2026-04-30 04:30 849K
20260430T00Z_MSC_GDPS_WindV_IsbL-0010_LatLon0.15_PT129H.grib2 2026-04-30 04:30 879K
20260430T00Z_MSC_GDPS_WindV_IsbL-0020_LatLon0.15_PT129H.grib2 2026-04-30 04:30 929K
20260430T00Z_MSC_GDPS_WindV_IsbL-0030_LatLon0.15_PT129H.grib2 2026-04-30 04:30 931K
20260430T00Z_MSC_GDPS_WindV_IsbL-0050_LatLon0.15_PT129H.grib2 2026-04-30 04:30 1.0M
20260430T00Z_MSC_GDPS_WindV_IsbL-0100_LatLon0.15_PT129H.grib2 2026-04-30 04:30 1.1M
20260430T00Z_MSC_GDPS_WindV_IsbL-0150_LatLon0.15_PT129H.grib2 2026-04-30 04:30 1.0M
20260430T00Z_MSC_GDPS_WindV_IsbL-0175_LatLon0.15_PT129H.grib2 2026-04-30 04:30 1.0M
20260430T00Z_MSC_GDPS_WindV_IsbL-0200_LatLon0.15_PT129H.grib2 2026-04-30 04:30 832K
20260430T00Z_MSC_GDPS_WindV_IsbL-0225_LatLon0.15_PT129H.grib2 2026-04-30 04:30 842K
20260430T00Z_MSC_GDPS_WindV_IsbL-0250_LatLon0.15_PT129H.grib2 2026-04-30 04:30 902K
20260430T00Z_MSC_GDPS_WindV_IsbL-0275_LatLon0.15_PT129H.grib2 2026-04-30 04:30 929K
20260430T00Z_MSC_GDPS_WindV_IsbL-0300_LatLon0.15_PT129H.grib2 2026-04-30 04:30 920K
20260430T00Z_MSC_GDPS_WindV_IsbL-0350_LatLon0.15_PT129H.grib2 2026-04-30 04:30 933K
20260430T00Z_MSC_GDPS_WindV_IsbL-0400_LatLon0.15_PT129H.grib2 2026-04-30 04:30 874K
20260430T00Z_MSC_GDPS_WindV_IsbL-0450_LatLon0.15_PT129H.grib2 2026-04-30 04:30 875K
20260430T00Z_MSC_GDPS_WindV_IsbL-0500_LatLon0.15_PT129H.grib2 2026-04-30 04:30 1.1M
20260430T00Z_MSC_GDPS_WindV_IsbL-0550_LatLon0.15_PT129H.grib2 2026-04-30 04:30 1.1M
20260430T00Z_MSC_GDPS_WindV_IsbL-0600_LatLon0.15_PT129H.grib2 2026-04-30 04:30 1.1M
20260430T00Z_MSC_GDPS_WindV_IsbL-0650_LatLon0.15_PT129H.grib2 2026-04-30 04:30 1.2M
20260430T00Z_MSC_GDPS_WindV_IsbL-0700_LatLon0.15_PT129H.grib2 2026-04-30 04:30 1.2M
20260430T00Z_MSC_GDPS_WindV_IsbL-0750_LatLon0.15_PT129H.grib2 2026-04-30 04:30 1.2M
20260430T00Z_MSC_GDPS_WindV_IsbL-0800_LatLon0.15_PT129H.grib2 2026-04-30 04:30 1.3M
20260430T00Z_MSC_GDPS_WindV_IsbL-0850_LatLon0.15_PT129H.grib2 2026-04-30 04:30 1.4M
20260430T00Z_MSC_GDPS_WindV_IsbL-0875_LatLon0.15_PT129H.grib2 2026-04-30 04:30 1.4M
20260430T00Z_MSC_GDPS_WindV_IsbL-0900_LatLon0.15_PT129H.grib2 2026-04-30 04:30 1.4M
20260430T00Z_MSC_GDPS_WindV_IsbL-0925_LatLon0.15_PT129H.grib2 2026-04-30 04:30 1.4M
20260430T00Z_MSC_GDPS_WindV_IsbL-0950_LatLon0.15_PT129H.grib2 2026-04-30 04:30 1.4M
20260430T00Z_MSC_GDPS_WindV_IsbL-0970_LatLon0.15_PT129H.grib2 2026-04-30 04:30 1.4M
20260430T00Z_MSC_GDPS_WindV_IsbL-0985_LatLon0.15_PT129H.grib2 2026-04-30 04:30 1.4M
20260430T00Z_MSC_GDPS_WindV_IsbL-1000_LatLon0.15_PT129H.grib2 2026-04-30 04:30 1.4M
20260430T00Z_MSC_GDPS_WindV_IsbL-1015_LatLon0.15_PT129H.grib2 2026-04-30 04:30 1.6M